Regional Weather Roundup
Issued by NWS

Home | Current Version | Previous Version | Text Only | Print | Product List | Glossary On
Versions: 1 2 3 4 5 6 7 8 9 10 11 12 13 14 15 16 17 18 19 20 21 22 23 24 25 26 27 28 29 30 31 32 33 34 35 36 37 38 39 40 41 42 43 44 45 46 47 48 49 50
975
ASUS43 KFSD 260802
RWRSD

WEATHER ROUNDUP FOR SOUTH DAKOTA
NATIONAL WEATHER SERVICE SIOUX FALLS SD
300 AM CDT FRI AUG 26 2016

NOTE: "FAIR" INDICATES FEW OR NO CLOUDS BELOW 12,000 FEET WITH NO
SIGNIFICANT WEATHER AND/OR OBSTRUCTIONS TO VISIBILITY.


SDZ001>005-009-010-012>017-260900-
NORTHWEST AND NORTH CENTRAL SOUTH DAKOTA

CITY           SKY/WX    TMP DP  RH WIND       PRES   REMARKS
BUFFALO          N/A     50  40  68 S9        30.11F
FAITH            N/A     50  45  83 S13       30.17S
MOBRIDGE       FAIR      52  45  77 SE3       30.14F
$$

SDZ012>016-024>037-041>051-057-063-072>074-260900-
SOUTHWEST AND SOUTH CENTRAL SOUTH DAKOTA

CITY           SKY/WX    TMP DP  RH WIND       PRES   REMARKS
RAPID CTY ARPT LGT RAIN  53  46  77 SE7       30.20F
PIERRE         FAIR      48  45  89 CALM      30.16F
CUSTER         TSTM      48  45  89 CALM      30.25F
PHILIP         CLOUDY    55  49  80 N5        30.18F
PINE RIDGE     CLOUDY    59  49  69 E7        30.19F
WINNER         FAIR      53  48  83 CALM      30.19F
$$

SDZ004>011-016>023-039-040-260900-
NORTHEAST SOUTH DAKOTA

CITY           SKY/WX    TMP DP  RH WIND       PRES   REMARKS
ABERDEEN       FAIR      47  45  93 CALM      30.16F
WATERTOWN      FAIR      53  51  93 CALM      30.17S
BROOKINGS      FAIR      50  49  96 CALM      30.17F
$$

SDZ017-020-022-023-036>040-048>070-260900-
SOUTHEAST SOUTH DAKOTA

CITY           SKY/WX    TMP DP  RH WIND       PRES   REMARKS
SIOUX FALLS    FAIR      53  52  96 CALM      30.17F
HURON          FAIR      48  46  93 W3        30.17F
CHAMBERLAIN    FAIR      54  50  86 CALM      30.18F
MITCHELL       FAIR      51  49  92 W3        30.19R
YANKTON        FAIR      52  46  82 NW3       30.17R
$$

ABBREVIATIONS USED IN REMARKS
   TC - TEMPERATURE IN CELSIUS
  WCI - WIND CHILL INDEX
   HX - HEAT INDEX
  VSB - VISIBILITY





USA.gov is the U.S. government's official web portal to all federal, state and local government web resources and services.